Weather History for KHIE - January, 2014

Change the Weather History Date:

Wednesday, January 22, 2014

  Actual Average Record
Temperature  
Mean Temperature -3 °F -  
Max Temperature 7 °F 20 °F - (-1)
Min Temperature -16 °F 0 °F - (-1)
Degree Days  
Heating Degree Days 68    
Moisture  
Dew Point -15 °F    
Average Humidity 66    
Maximum Humidity 79    
Minimum Humidity 48    
Precipitation  
Precipitation 0.00 in - - ()
Sea Level Pressure  
Sea Level Pressure 29.93 in    
Wind  
Wind Speed 3 mph (North)    
Max Wind Speed 9 mph    
Max Gust Speed -    
Visibility 10 miles    
Events      
Averages and records for this station are not official NWS values.
T = Trace of Precipitation, MM = Missing Value Source: NWS Daily Summary

Daily Weather History Graph

Daily Weather History Graph

Search for Another Location

Airport or City:

Trip Planner

Search our weather history database for the weather conditions in past years. The results will help you decide how hot, cold, wet, or windy it might be!

Date:

Astronomy

Jan. 22, 2014 Rise Set
Actual Time 7:14 AM EST 4:41 PM EST
Civil Twilight 6:42 AM EST 5:13 PM EST
Nautical Twilight 6:06 AM EST 5:49 PM EST
Astronomical Twilight 5:32 AM EST 6:23 PM EST
Moon 11:28 PM EST (1/22) 9:58 AM EST (1/22)
Length of Visible Light 10h 31m
Length of Day
9h 27m
Waning Gibbous, 65% of the Moon is Illuminated
Jan 22
Waning Gibbous
Jan 24
Last Quarter
Jan 30
New
Feb 6
First Quarter
Feb 14
Full

Hourly Weather History & Observations

Time (EST) Temp. Windchill Dew Point Humidity Pressure Visibility Wind Dir Wind Speed Gust Speed Precip Events Conditions
12:52 AM -6.0 °F -16.9 °F -14.1 °F 68% 30.00 in 10.0 mi North 4.6 mph - N/A   Clear
1:52 AM -8.0 °F - -15.0 °F 71% 30.00 in 10.0 mi Calm Calm - N/A   Clear
2:52 AM -9.9 °F - -16.1 °F 74% 29.99 in 10.0 mi Calm Calm - N/A   Clear
3:52 AM -9.9 °F - -17.0 °F 71% 29.96 in 10.0 mi Calm Calm - N/A   Clear
4:52 AM -9.0 °F - -17.0 °F 68% 29.96 in 10.0 mi Calm Calm - N/A   Clear
5:52 AM -9.0 °F - -17.0 °F 68% 29.95 in 10.0 mi Calm Calm - N/A   Clear
6:52 AM -9.0 °F -18.2 °F -18.0 °F 65% 29.97 in 10.0 mi NNE 3.5 mph - N/A   Clear
7:52 AM -9.0 °F - -18.0 °F 65% 29.97 in 10.0 mi Calm Calm - N/A   Clear
8:52 AM -9.9 °F -19.2 °F -18.0 °F 68% 29.96 in 10.0 mi North 3.5 mph - N/A   Clear
9:52 AM -8.0 °F -21.0 °F -18.0 °F 61% 29.94 in 10.0 mi North 5.8 mph - N/A   Clear
10:52 AM -5.1 °F -17.6 °F -16.1 °F 59% 29.90 in 10.0 mi NW 5.8 mph - N/A   Clear
11:52 AM -2.0 °F - -13.0 °F 60% 29.85 in 10.0 mi Calm Calm - N/A   Clear
12:52 PM 3.9 °F -8.2 °F -11.0 °F 50% 29.80 in 10.0 mi NNW 6.9 mph - N/A   Clear
1:52 PM 6.1 °F -6.8 °F -9.9 °F 48% 29.79 in 10.0 mi NNE 8.1 mph - N/A   Clear
2:52 PM 7.0 °F -5.7 °F -9.0 °F 48% 29.80 in 10.0 mi North 8.1 mph - N/A   Clear
3:52 PM 5.0 °F -9.1 °F -9.9 °F 50% 29.83 in 10.0 mi NNE 9.2 mph - N/A   Clear
4:52 PM 1.0 °F -10.3 °F -11.0 °F 57% 29.86 in 10.0 mi NNE 5.8 mph - N/A   Clear
5:52 PM -2.0 °F - -11.0 °F 66% 29.89 in 10.0 mi Calm Calm - N/A   Clear
6:52 PM -7.1 °F -15.9 °F -11.9 °F 79% 29.92 in 10.0 mi South 3.5 mph - N/A   Clear
7:52 PM -9.0 °F - -15.0 °F 75% 29.94 in 10.0 mi Calm Calm - N/A   Clear
8:52 PM -11.0 °F - -16.1 °F 78% 29.97 in 10.0 mi Calm Calm - N/A   Clear
9:52 PM -11.9 °F - -18.0 °F 74% 29.98 in 10.0 mi Calm Calm - N/A   Clear
10:52 PM -13.0 °F - -18.9 °F 75% 29.99 in 10.0 mi Calm Calm - N/A   Clear
11:52 PM -16.1 °F - -20.9 °F 79% 29.99 in 10.0 mi Calm Calm - N/A   Clear